Time,TemperatureF,DewpointF,PressureIn,WindDirection,WindDirectionDegrees,WindSpeedMPH,WindSpeedGustMPH,Humidity,HourlyPrecipIn,Conditions,Clouds,dailyrainin,SoftwareType,DateUTC
2013-03-16 00:02:00,32.0,25.0,29.81,East,100,0.0,1.0,75,0.00,,,0.01,,2013-03-16 04:02:00,
2013-03-16 00:13:00,32.0,25.0,29.81,East,100,0.0,1.0,75,0.00,,,0.01,,2013-03-16 04:13:00,
2013-03-16 00:23:00,31.0,26.0,29.82,East,100,0.0,0.0,82,0.00,,,0.01,,2013-03-16 04:23:00,
2013-03-16 00:33:00,30.0,26.0,29.83,East,100,0.0,0.0,84,0.00,,,0.01,,2013-03-16 04:33:00,
2013-03-16 00:43:00,30.0,26.0,29.83,East,100,0.0,0.0,84,0.00,,,0.01,,2013-03-16 04:43:00,
2013-03-16 00:53:00,31.0,27.0,29.83,ENE,73,0.0,2.0,84,0.00,,,0.01,,2013-03-16 04:53:00,
2013-03-16 01:02:00,33.0,28.0,29.83,East,79,0.0,2.0,81,0.00,,,0.01,,2013-03-16 05:02:00,
2013-03-16 01:12:00,33.0,28.0,29.83,East,79,0.0,2.0,81,0.00,,,0.01,,2013-03-16 05:12:00,
2013-03-16 01:22:00,34.0,28.0,29.84,East,84,0.0,5.0,77,0.00,,,0.01,,2013-03-16 05:22:00,
2013-03-16 01:32:00,33.0,26.0,29.84,SW,235,0.0,2.0,75,0.00,,,0.01,,2013-03-16 05:32:00,
2013-03-16 01:42:00,33.0,26.0,29.84,SW,235,0.0,2.0,75,0.00,,,0.01,,2013-03-16 05:42:00,
2013-03-16 01:53:00,33.0,26.0,29.84,ENE,70,0.0,1.0,74,0.00,,,0.01,,2013-03-16 05:53:00,
2013-03-16 02:02:00,33.0,27.0,29.85,East,98,0.0,0.0,78,0.00,,,0.01,,2013-03-16 06:02:00,
2013-03-16 02:12:00,33.0,27.0,29.85,East,98,0.0,0.0,78,0.00,,,0.01,,2013-03-16 06:12:00,
2013-03-16 02:22:00,31.0,25.0,29.84,East,98,0.0,1.0,79,0.00,,,0.01,,2013-03-16 06:22:00,
2013-03-16 02:32:00,32.0,23.0,29.84,NE,36,0.0,2.0,69,0.00,,,0.01,,2013-03-16 06:32:00,
2013-03-16 02:42:00,32.0,23.0,29.84,NE,36,0.0,2.0,69,0.00,,,0.01,,2013-03-16 06:42:00,
2013-03-16 02:52:00,32.0,22.0,29.85,NE,41,0.0,7.0,65,0.00,,,0.01,,2013-03-16 06:52:00,
2013-03-16 03:02:00,32.0,20.0,29.85,East,94,0.0,2.0,61,0.00,,,0.01,,2013-03-16 07:02:00,
2013-03-16 03:12:00,32.0,20.0,29.85,East,94,0.0,2.0,61,0.00,,,0.01,,2013-03-16 07:12:00,
2013-03-16 03:22:00,31.0,20.0,29.86,NE,56,0.0,1.0,62,0.00,,,0.00,,2013-03-16 07:22:00,
2013-03-16 03:32:00,30.0,19.0,29.86,NNE,15,0.0,1.0,64,0.00,,,0.00,,2013-03-16 07:32:00,
2013-03-16 03:42:00,30.0,19.0,29.86,NNE,15,0.0,1.0,64,0.00,,,0.00,,2013-03-16 07:42:00,
2013-03-16 03:52:00,30.0,20.0,29.86,NE,51,1.0,2.0,66,0.00,,,0.00,,2013-03-16 07:52:00,
2013-03-16 04:03:00,30.0,20.0,29.87,NE,34,0.0,1.0,65,0.00,,,0.00,,2013-03-16 08:03:00,
2013-03-16 04:12:00,30.0,20.0,29.87,NE,34,0.0,1.0,65,0.00,,,0.00,,2013-03-16 08:12:00,
2013-03-16 04:23:00,30.0,20.0,29.88,ENE,71,0.0,3.0,66,0.00,,,0.00,,2013-03-16 08:23:00,
2013-03-16 04:32:00,30.0,21.0,29.88,North,359,0.0,3.0,69,0.00,,,0.00,,2013-03-16 08:32:00,
2013-03-16 04:42:00,30.0,21.0,29.88,North,359,0.0,3.0,69,0.00,,,0.00,,2013-03-16 08:42:00,
2013-03-16 04:52:00,30.0,21.0,29.89,East,82,1.0,3.0,70,0.00,,,0.00,,2013-03-16 08:52:00,
2013-03-16 05:02:00,30.0,21.0,29.90,ENE,67,0.0,3.0,69,0.00,,,0.00,,2013-03-16 09:02:00,
2013-03-16 05:12:00,30.0,21.0,29.90,ENE,67,0.0,3.0,69,0.00,,,0.00,,2013-03-16 09:12:00,
2013-03-16 05:22:00,29.0,21.0,29.89,SSE,152,0.0,1.0,73,0.00,,,0.00,,2013-03-16 09:22:00,
2013-03-16 05:33:00,29.0,21.0,29.90,NE,56,0.0,1.0,73,0.00,,,0.00,,2013-03-16 09:33:00,
2013-03-16 05:42:00,29.0,21.0,29.90,NE,56,0.0,1.0,73,0.00,,,0.00,,2013-03-16 09:42:00,
2013-03-16 05:53:00,30.0,21.0,29.91,North,8,0.0,4.0,70,0.00,,,0.00,,2013-03-16 09:53:00,
2013-03-16 06:03:00,29.0,19.0,29.90,East,79,3.0,5.0,66,0.00,,,0.00,,2013-03-16 10:03:00,
2013-03-16 06:12:00,29.0,19.0,29.90,East,79,3.0,5.0,66,0.00,,,0.00,,2013-03-16 10:12:00,
2013-03-16 06:23:00,29.0,19.0,29.91,East,80,0.0,1.0,66,0.00,,,0.00,,2013-03-16 10:23:00,
2013-03-16 06:32:00,28.0,19.0,29.92,East,86,0.0,1.0,69,0.00,,,0.00,,2013-03-16 10:32:00,
2013-03-16 06:42:00,28.0,19.0,29.92,East,86,0.0,1.0,69,0.00,,,0.00,,2013-03-16 10:42:00,
2013-03-16 06:53:00,28.0,20.0,29.93,East,86,0.0,1.0,70,0.00,,,0.00,,2013-03-16 10:53:00,
2013-03-16 07:03:00,27.0,20.0,29.93,East,86,0.0,0.0,73,0.00,,,0.00,,2013-03-16 11:03:00,
2013-03-16 07:12:00,27.0,20.0,29.93,East,86,0.0,0.0,73,0.00,,,0.00,,2013-03-16 11:12:00,
2013-03-16 07:22:00,26.0,19.0,29.93,East,86,0.0,0.0,76,0.00,,,0.00,,2013-03-16 11:22:00,
2013-03-16 07:32:00,25.0,19.0,29.94,East,86,0.0,0.0,77,0.00,,,0.00,,2013-03-16 11:32:00,
2013-03-16 07:43:00,25.0,19.0,29.94,East,86,0.0,0.0,77,0.00,,,0.00,,2013-03-16 11:43:00,
2013-03-16 07:53:00,25.0,19.0,29.94,East,86,0.0,0.0,79,0.00,,,0.00,,2013-03-16 11:53:00,
2013-03-16 08:02:00,26.0,18.0,29.94,East,81,0.0,2.0,71,0.00,,,0.00,,2013-03-16 12:02:00,
2013-03-16 08:12:00,26.0,18.0,29.94,East,81,0.0,2.0,71,0.00,,,0.00,,2013-03-16 12:12:00,
2013-03-16 08:22:00,26.0,18.0,29.95,East,80,0.0,0.0,70,0.00,,,0.00,,2013-03-16 12:22:00,
2013-03-16 08:32:00,27.0,18.0,29.95,ESE,120,0.0,1.0,69,0.00,,,0.00,,2013-03-16 12:32:00,
2013-03-16 08:42:00,27.0,18.0,29.95,ESE,120,0.0,1.0,69,0.00,,,0.00,,2013-03-16 12:42:00,
2013-03-16 08:53:00,28.0,17.0,29.95,East,88,1.0,3.0,64,0.00,,,0.00,,2013-03-16 12:53:00,
2013-03-16 09:02:00,29.0,17.0,29.95,ENE,78,0.0,2.0,60,0.00,,,0.00,,2013-03-16 13:02:00,
2013-03-16 09:12:00,29.0,17.0,29.95,ENE,78,0.0,2.0,60,0.00,,,0.00,,2013-03-16 13:12:00,
2013-03-16 09:22:00,29.0,16.0,29.95,East,91,0.0,2.0,58,0.00,,,0.00,,2013-03-16 13:22:00,
2013-03-16 09:32:00,29.0,15.0,29.96,SW,217,0.0,4.0,56,0.00,,,0.00,,2013-03-16 13:32:00,
2013-03-16 09:42:00,29.0,15.0,29.96,SW,217,0.0,4.0,56,0.00,,,0.00,,2013-03-16 13:42:00,
2013-03-16 09:53:00,30.0,15.0,29.96,SSW,195,1.0,4.0,54,0.00,,,0.00,,2013-03-16 13:53:00,
2013-03-16 10:03:00,30.0,15.0,29.96,SE,126,0.0,4.0,54,0.00,,,0.00,,2013-03-16 14:03:00,
2013-03-16 10:12:00,30.0,15.0,29.96,SE,126,0.0,4.0,54,0.00,,,0.00,,2013-03-16 14:12:00,
2013-03-16 10:22:00,30.0,16.0,29.95,ENE,58,0.0,2.0,56,0.00,,,0.00,,2013-03-16 14:22:00,
2013-03-16 10:32:00,30.0,15.0,29.95,NE,51,0.0,1.0,54,0.00,,,0.00,,2013-03-16 14:32:00,
2013-03-16 10:42:00,30.0,15.0,29.95,NE,51,0.0,1.0,54,0.00,,,0.00,,2013-03-16 14:42:00,
2013-03-16 10:53:00,31.0,17.0,29.94,NNE,22,0.0,2.0,55,0.00,,,0.00,,2013-03-16 14:53:00,
2013-03-16 11:03:00,32.0,15.0,29.94,SSE,148,0.0,1.0,50,0.00,,,0.00,,2013-03-16 15:03:00,
2013-03-16 11:13:00,32.0,15.0,29.94,SSE,148,0.0,1.0,50,0.00,,,0.00,,2013-03-16 15:13:00,
2013-03-16 11:23:00,33.0,15.0,29.94,East,100,1.0,3.0,48,0.00,,,0.00,,2013-03-16 15:23:00,
2013-03-16 11:33:00,33.0,15.0,29.93,WSW,243,1.0,3.0,46,0.00,,,0.00,,2013-03-16 15:33:00,
2013-03-16 11:43:00,33.0,15.0,29.93,WSW,243,1.0,3.0,46,0.00,,,0.00,,2013-03-16 15:43:00,
2013-03-16 11:53:00,33.0,13.0,29.91,East,94,1.0,5.0,44,0.00,,,0.00,,2013-03-16 15:53:00,
2013-03-16 12:03:00,35.0,14.0,29.91,NNE,27,1.0,4.0,42,0.00,,,0.00,,2013-03-16 16:03:00,
2013-03-16 12:13:00,35.0,14.0,29.91,NNE,27,1.0,4.0,42,0.00,,,0.00,,2013-03-16 16:13:00,
2013-03-16 12:23:00,37.0,15.0,29.90,NNE,30,2.0,6.0,40,0.00,,,0.00,,2013-03-16 16:23:00,
2013-03-16 12:33:00,37.0,14.0,29.90,ENE,68,1.0,4.0,39,0.00,,,0.00,,2013-03-16 16:33:00,
2013-03-16 12:42:00,37.0,14.0,29.90,ENE,68,1.0,4.0,39,0.00,,,0.00,,2013-03-16 16:42:00,
2013-03-16 12:53:00,39.0,14.0,29.90,NE,51,1.0,3.0,36,0.00,,,0.00,,2013-03-16 16:53:00,
2013-03-16 13:03:00,37.0,14.0,29.89,NE,37,1.0,4.0,38,0.00,,,0.00,,2013-03-16 17:03:00,
2013-03-16 13:13:00,37.0,14.0,29.89,NE,37,1.0,4.0,38,0.00,,,0.00,,2013-03-16 17:13:00,
2013-03-16 13:23:00,37.0,12.0,29.89,East,84,0.0,4.0,35,0.00,,,0.00,,2013-03-16 17:23:00,
2013-03-16 13:33:00,37.0,11.0,29.90,East,82,0.0,2.0,34,0.00,,,0.00,,2013-03-16 17:33:00,
2013-03-16 13:42:00,37.0,11.0,29.90,East,82,0.0,2.0,34,0.00,,,0.00,,2013-03-16 17:42:00,
2013-03-16 13:53:00,37.0,13.0,29.89,NE,39,1.0,3.0,37,0.00,,,0.00,,2013-03-16 17:53:00,
2013-03-16 14:02:00,37.0,13.0,29.88,NE,49,1.0,3.0,37,0.00,,,0.00,,2013-03-16 18:02:00,
2013-03-16 14:13:00,37.0,13.0,29.88,NE,49,1.0,3.0,37,0.00,,,0.00,,2013-03-16 18:13:00,
2013-03-16 14:23:00,38.0,13.0,29.88,NE,35,0.0,2.0,36,0.00,,,0.00,,2013-03-16 18:23:00,
2013-03-16 14:33:00,38.0,13.0,29.88,East,98,0.0,1.0,35,0.00,,,0.00,,2013-03-16 18:33:00,
2013-03-16 14:43:00,38.0,13.0,29.88,East,98,0.0,1.0,35,0.00,,,0.00,,2013-03-16 18:43:00,
2013-03-16 14:53:00,37.0,12.0,29.87,SW,222,0.0,1.0,35,0.00,,,0.00,,2013-03-16 18:53:00,
2013-03-16 15:02:00,38.0,16.0,29.88,SW,231,1.0,7.0,40,0.00,,,0.00,,2013-03-16 19:02:00,
2013-03-16 15:12:00,38.0,16.0,29.88,SW,231,1.0,7.0,40,0.00,,,0.00,,2013-03-16 19:12:00,
2013-03-16 15:22:00,38.0,17.0,29.88,SSW,203,1.0,5.0,42,0.00,,,0.00,,2013-03-16 19:22:00,
2013-03-16 15:32:00,37.0,18.0,29.88,SSE,167,1.0,4.0,46,0.00,,,0.00,,2013-03-16 19:32:00,
2013-03-16 15:42:00,37.0,18.0,29.88,SSE,167,1.0,4.0,46,0.00,,,0.00,,2013-03-16 19:42:00,
2013-03-16 15:53:00,37.0,19.0,29.87,NE,39,0.0,3.0,47,0.00,,,0.00,,2013-03-16 19:53:00,
2013-03-16 16:02:00,38.0,19.0,29.87,ESE,104,0.0,2.0,46,0.00,,,0.00,,2013-03-16 20:02:00,
2013-03-16 16:12:00,38.0,19.0,29.87,ESE,104,0.0,2.0,46,0.00,,,0.00,,2013-03-16 20:12:00,
2013-03-16 16:22:00,38.0,19.0,29.87,ESE,121,0.0,1.0,46,0.00,,,0.00,,2013-03-16 20:22:00,
2013-03-16 16:33:00,38.0,20.0,29.86,East,87,0.0,3.0,47,0.00,,,0.00,,2013-03-16 20:33:00,
2013-03-16 16:42:00,38.0,20.0,29.86,East,87,0.0,3.0,47,0.00,,,0.00,,2013-03-16 20:42:00,
2013-03-16 16:53:00,38.0,20.0,29.85,East,84,0.0,4.0,48,0.00,,,0.00,,2013-03-16 20:53:00,
2013-03-16 17:02:00,37.0,19.0,29.85,ENE,65,0.0,1.0,47,0.00,,,0.00,,2013-03-16 21:02:00,
2013-03-16 17:12:00,37.0,19.0,29.85,ENE,65,0.0,1.0,47,0.00,,,0.00,,2013-03-16 21:12:00,
2013-03-16 17:23:00,38.0,21.0,29.85,SW,215,0.0,2.0,50,0.00,,,0.00,,2013-03-16 21:23:00,
2013-03-16 17:33:00,37.0,20.0,29.85,SW,218,1.0,4.0,49,0.00,,,0.00,,2013-03-16 21:33:00,
2013-03-16 17:43:00,37.0,20.0,29.85,SW,218,1.0,4.0,49,0.00,,,0.00,,2013-03-16 21:43:00,
2013-03-16 17:53:00,36.0,19.0,29.85,ENE,58,0.0,1.0,50,0.00,,,0.00,,2013-03-16 21:53:00,
2013-03-16 18:03:00,36.0,20.0,29.85,SSW,194,0.0,1.0,51,0.00,,,0.00,,2013-03-16 22:03:00,
2013-03-16 18:13:00,36.0,20.0,29.85,SSW,194,0.0,1.0,51,0.00,,,0.00,,2013-03-16 22:13:00,
2013-03-16 18:23:00,36.0,21.0,29.86,NE,36,0.0,1.0,54,0.00,,,0.00,,2013-03-16 22:23:00,
2013-03-16 18:33:00,35.0,21.0,29.86,ESE,103,0.0,1.0,56,0.00,,,0.00,,2013-03-16 22:33:00,
2013-03-16 18:42:00,35.0,21.0,29.86,ESE,103,0.0,1.0,56,0.00,,,0.00,,2013-03-16 22:42:00,
2013-03-16 18:53:00,35.0,20.0,29.86,East,93,0.0,0.0,55,0.00,,,0.00,,2013-03-16 22:53:00,
2013-03-16 19:02:00,35.0,21.0,29.88,East,95,0.0,2.0,57,0.00,,,0.00,,2013-03-16 23:02:00,
2013-03-16 19:13:00,35.0,21.0,29.88,East,95,0.0,2.0,57,0.00,,,0.00,,2013-03-16 23:13:00,
2013-03-16 19:23:00,34.0,20.0,29.88,SE,135,0.0,1.0,56,0.00,,,0.00,,2013-03-16 23:23:00,
2013-03-16 19:33:00,34.0,21.0,29.88,SE,142,0.0,1.0,58,0.00,,,0.00,,2013-03-16 23:33:00,
2013-03-16 19:42:00,34.0,21.0,29.88,SE,142,0.0,1.0,58,0.00,,,0.00,,2013-03-16 23:42:00,
2013-03-16 19:53:00,34.0,22.0,29.89,ENE,73,0.0,1.0,60,0.00,,,0.00,,2013-03-16 23:53:00,
2013-03-16 20:02:00,33.0,21.0,29.89,ENE,73,0.0,0.0,60,0.00,,,0.00,,2013-03-17 00:02:00,
2013-03-16 20:12:00,33.0,21.0,29.89,ENE,73,0.0,0.0,60,0.00,,,0.00,,2013-03-17 00:12:00,
2013-03-16 20:23:00,33.0,21.0,29.89,ESE,103,0.0,1.0,61,0.00,,,0.00,,2013-03-17 00:23:00,
2013-03-16 20:33:00,33.0,22.0,29.90,ESE,103,0.0,0.0,63,0.00,,,0.00,,2013-03-17 00:33:00,
2013-03-16 20:42:00,33.0,22.0,29.90,ESE,103,0.0,0.0,63,0.00,,,0.00,,2013-03-17 00:42:00,
2013-03-16 20:53:00,33.0,22.0,29.90,SW,217,0.0,1.0,63,0.00,,,0.00,,2013-03-17 00:53:00,
2013-03-16 21:02:00,33.0,23.0,29.91,SW,222,0.0,2.0,66,0.00,,,0.00,,2013-03-17 01:02:00,
2013-03-16 21:12:00,33.0,23.0,29.91,SW,222,0.0,2.0,66,0.00,,,0.00,,2013-03-17 01:12:00,
2013-03-16 21:22:00,33.0,24.0,29.91,SE,141,0.0,1.0,68,0.00,,,0.00,,2013-03-17 01:22:00,
2013-03-16 21:32:00,32.0,22.0,29.92,South,173,0.0,1.0,66,0.00,,,0.00,,2013-03-17 01:32:00,
2013-03-16 21:42:00,32.0,22.0,29.92,South,173,0.0,1.0,66,0.00,,,0.00,,2013-03-17 01:42:00,
2013-03-16 21:53:00,32.0,22.0,29.93,East,89,0.0,0.0,67,0.00,,,0.00,,2013-03-17 01:53:00,
2013-03-16 22:03:00,32.0,22.0,29.93,SSE,160,0.0,1.0,66,0.00,,,0.00,,2013-03-17 02:03:00,
2013-03-16 22:13:00,32.0,22.0,29.93,SSE,160,0.0,1.0,66,0.00,,,0.00,,2013-03-17 02:13:00,
2013-03-16 22:23:00,32.0,22.0,29.93,East,98,0.0,2.0,66,0.00,,,0.00,,2013-03-17 02:23:00,
2013-03-16 22:33:00,32.0,22.0,29.94,East,98,0.0,1.0,67,0.00,,,0.00,,2013-03-17 02:33:00,
2013-03-16 22:43:00,32.0,22.0,29.94,East,98,0.0,1.0,67,0.00,,,0.00,,2013-03-17 02:43:00,
2013-03-16 22:53:00,32.0,23.0,29.95,East,83,0.0,1.0,68,0.00,,,0.00,,2013-03-17 02:53:00,
2013-03-16 23:03:00,32.0,23.0,29.96,East,83,0.0,0.0,68,0.00,,,0.00,,2013-03-17 03:03:00,
2013-03-16 23:12:00,32.0,23.0,29.96,East,83,0.0,0.0,68,0.00,,,0.00,,2013-03-17 03:12:00,
2013-03-16 23:23:00,32.0,23.0,29.96,ESE,112,0.0,1.0,68,0.00,,,0.00,,2013-03-17 03:23:00,
2013-03-16 23:34:00,32.0,23.0,29.96,ESE,111,0.0,0.0,68,0.00,,,0.00,,2013-03-17 03:34:00,
2013-03-16 23:43:00,32.0,23.0,29.96,ESE,111,0.0,0.0,68,0.00,,,0.00,,2013-03-17 03:43:00,
2013-03-16 23:53:00,32.0,22.0,29.96,NNE,16,0.0,1.0,65,0.00,,,0.00,,2013-03-17 03:53:00,